Theta_e
316 315 315 314 314 315 322 326 331 322 317 330 327 325 320 312 319 319 320 320 321 322 322 323 322 321 321 318 318 321 322 322 326 324 322 320 319 322 322 328 327 326 326 326
316 316 315 315 315 313 319 325 325 324 325 335 329 321 320 320 320 320 321 321 321 321 322 324 323 322 320 319 318 321 320 324 325 323 323 320 322 321 321 322 323 325 328 326
316 316 316 316 315 315 318 324 328 326 325 324 324 323 323 322 320 320 320 321 321 322 323 322 322 321 321 319 319 317 317 320 323 326 324 322 323 321 320 322 324 324 324 323
316 316 316 316 316 315 321 321 325 321 332 326 325 323 322 323 323 321 320 321 321 321 322 322 320 321 321 320 319 319 320 324 321 321 320 320 320 320 320 321 320 321 321 321
315 315 316 316 316 316 323 325 324 321 321 320 322 318 321 321 321 319 321 320 320 320 322 321 322 321 321 321 320 321 321 322 320 320 320 319 319 319 320 319 318 319 320 320
315 315 315 316 316 320 321 319 317 328 318 321 323 322 320 319 319 320 318 320 321 320 321 321 320 319 319 320 321 322 322 321 318 321 318 317 320 318 319 319 318 319 319 318
316 316 316 315 316 317 323 321 320 315 327 325 321 319 319 320 319 321 320 319 319 319 319 319 319 319 318 318 318 319 320 316 315 319 316 322 318 317 316 318 318 317 316 316
316 316 316 316 315 316 321 320 321 322 315 323 321 320 320 319 319 319 319 318 320 319 319 320 315 322 318 317 317 318 318 316 321 321 322 319 317 316 317 317 317 316 317 317
316 316 316 315 315 316 317 321 320 320 311 322 319 320 320 324 324 324 321 319 318 318 323 317 318 321 318 317 316 317 316 315 324 325 322 321 318 315 315 316 318 318 317 317
316 316 316 315 315 315 316 321 320 321 321 322 321 321 323 320 322 323 322 320 319 318 318 318 317 318 315 317 317 317 320 316 318 320 320 318 316 316 316 320 320 316 316 316
316 316 316 316 315 315 315 319 321 320 320 320 319 320 321 320 321 325 321 321 323 318 317 316 319 317 319 318 316 318 317 319 318 316 319 321 316 318 318 317 317 316 315 314
315 316 316 315 315 315 314 317 319 319 319 320 320 320 319 318 318 320 320 319 319 319 320 315 316 315 316 312 317 313 316 316 318 317 318 316 316 316 316 314 316 315 314 313
314 314 315 315 315 315 314 315 317 317 306 316 317 319 317 317 317 318 321 322 318 318 319 319 311 313 316 316 316 316 315 314 316 315 314 315 315 315 314 314 313 312 312 311
313 313 313 313 313 314 314 313 314 315 308 304 313 314 316 316 316 317 317 318 317 317 318 313 309 310 312 314 314 315 314 314 314 313 314 314 314 314 314 313 312 311 310 309
313 314 314 313 312 313 313 313 313 314 314 309 308 309 313 314 315 316 316 317 318 318 314 308 311 314 312 314 313 313 313 313 314 315 314 314 314 314 313 311 311 308 307 304
312 313 314 314 314 312 310 307 310 311 314 307 307 308 309 312 313 314 315 317 318 318 317 310 313 313 309 310 314 313 313 312 313 314 313 313 313 311 310 309 308 305 303 303
310 311 312 313 313 311 308 306 307 309 310 300 309 310 305 307 309 312 314 314 316 316 314 310 308 308 311 306 314 313 313 312 311 311 311 310 309 311 308 306 304 302 302 301
308 310 311 311 308 305 304 304 306 308 307 301 308 305 305 305 310 311 308 310 307 306 308 305 307 309 306 310 312 311 311 310 310 309 309 308 306 305 303 302 302 302 301 299
305 306 305 304 302 301 301 302 303 303 303 303 300 306 310 306 307 303 303 303 305 305 306 309 309 311 312 311 311 310 310 309 308 307 304 303 303 302 302 302 301 301 300 296
301 302 301 299 300 300 301 300 298 296 295 296 301 304 310 308 305 305 305 302 304 308 308 309 311 311 310 310 309 308 306 304 303 304 303 302 302 301 301 301 301 300 297 296
302 302 300 301 300 302 301 301 300 299 302 299 302 304 308 306 306 305 302 304 305 309 308 311 311 310 308 307 306 304 302 302 301 301 300 300 301 300 300 300 300 297 295 295
302 302 300 300 302 303 303 303 303 303 305 305 305 305 304 303 305 306 303 305 305 305 306 306 307 307 305 304 303 301 301 300 300 299 299 298 298 299 299 299 299 297 295 294
301 299 301 301 302 302 302 304 306 306 305 301 303 304 302 302 300 302 301 305 304 303 306 306 307 306 305 302 301 300 299 298 298 297 296 297 298 298 295 294 294 293 293 292
301 299 300 301 300 300 302 303 302 299 300 302 303 302 304 301 300 300 301 303 305 305 305 306 307 303 301 300 300 299 298 295 295 296 297 297 296 296 294 293 292 291 289 290
298 298 299 300 300 301 298 300 300 299 299 301 301 301 301 301 300 300 302 301 302 303 304 306 304 303 301 300 300 298 297 294 294 296 296 296 296 292 292 293 291 288 288 288
296 295 298 299 301 299 298 297 300 300 299 298 300 299 297 297 299 299 300 301 300 302 306 303 300 300 300 298 296 297 297 296 296 296 296 296 296 293 293 293 291 289 288 288
294 296 298 299 300 299 300 297 298 299 297 298 298 297 297 298 299 298 298 300 302 302 301 299 299 298 298 296 296 296 296 296 296 296 296 296 295 294 292 291 290 288 288 288
Wind_Speed
7 10 13 17 21 13 5 4 0 5 1 1 3 2 2 3 4 1 4 4 6 5 5 5 5 4 6 7 9 7 6 4 5 18 17 3 5 8 8 3 8 9 12 14
6 9 11 14 18 21 8 3 3 2 1 2 2 5 4 5 1 4 3 3 4 3 4 3 4 5 4 7 6 7 9 3 5 8 5 3 12 19 18 16 2 8 7 10
5 7 10 12 14 17 7 2 3 3 3 3 6 5 4 3 3 3 2 2 1 2 4 2 5 7 3 1 6 7 1 6 6 8 15 18 19 22 24 20 12 17 15 28
5 6 8 10 12 13 6 2 2 3 2 2 4 3 1 4 2 1 2 1 2 3 3 6 4 5 9 9 4 2 3 6 11 17 19 20 23 25 24 23 21 19 24 22
5 6 7 9 11 9 2 4 2 1 2 2 1 2 1 2 4 3 3 3 4 4 5 3 11 12 11 8 11 5 3 4 3 7 19 20 19 22 25 25 22 21 20 21
4 5 6 8 9 9 3 2 1 3 1 2 1 2 2 1 4 4 3 6 8 6 8 9 11 12 14 16 17 15 14 3 2 8 9 11 11 14 16 13 17 17 16 21
5 4 5 6 6 6 5 4 5 4 1 2 4 3 4 4 4 5 6 6 7 7 7 10 10 11 16 18 19 15 10 4 3 3 3 6 7 20 24 20 16 17 19 21
7 6 5 6 4 3 4 2 0 2 1 5 7 6 7 8 6 7 8 9 6 7 5 4 6 4 4 7 12 8 7 5 2 3 8 17 16 17 13 19 13 16 10 19
12 10 8 6 5 3 1 2 1 2 4 4 10 10 10 5 6 8 10 5 3 2 2 2 2 3 4 3 7 8 9 8 1 3 13 15 2 18 19 12 15 12 13 17
16 14 12 9 8 6 5 3 4 5 1 4 6 6 6 7 5 5 3 2 0 3 2 1 4 5 8 5 3 3 2 3 6 10 10 10 14 15 12 7 5 17 14 16
20 18 16 13 10 8 7 7 6 5 2 6 9 10 11 8 4 3 2 3 2 2 3 3 4 3 4 5 8 7 8 6 4 5 5 11 4 12 5 14 17 19 15 13
23 22 20 18 15 12 9 7 7 7 5 5 5 10 17 15 18 8 3 4 4 5 3 3 3 3 2 2 8 14 5 7 7 9 7 20 24 25 16 24 20 18 20 20
23 24 23 22 19 17 15 9 8 3 2 5 8 11 21 19 19 16 7 3 6 6 7 4 3 5 3 4 4 5 6 13 12 16 18 23 24 25 22 21 18 18 18 15
24 24 23 23 21 21 19 17 13 8 2 2 5 17 17 13 15 19 21 20 19 14 5 3 4 3 6 5 9 10 6 9 12 21 23 22 20 19 22 22 19 13 15 13
27 26 26 24 23 21 20 23 24 20 6 3 3 4 15 16 17 18 21 19 12 7 3 3 4 3 3 7 8 7 6 15 10 17 21 19 25 22 25 16 10 15 13 13
31 32 29 28 25 20 15 2 20 33 21 2 3 4 5 18 20 19 20 20 11 10 4 3 4 3 5 4 12 9 14 13 15 17 26 26 24 19 17 15 14 12 14 13
23 27 28 25 24 26 7 4 3 10 22 3 3 3 2 7 10 10 10 18 8 5 4 4 3 3 5 3 11 22 18 19 23 23 17 14 15 12 12 8 15 20 17 18
15 16 17 21 17 13 3 5 5 14 7 4 3 3 3 3 2 2 5 2 2 2 2 1 1 1 2 5 16 19 20 19 18 13 12 11 10 13 13 17 16 13 12 12
14 18 22 16 3 3 6 9 9 5 4 3 2 3 2 3 2 1 2 2 1 2 3 3 3 4 7 10 15 16 17 15 11 10 10 11 12 13 14 15 16 13 10 8
13 5 4 2 3 14 10 4 3 4 2 2 2 2 3 4 1 1 1 1 2 2 4 4 4 9 19 19 18 14 8 7 7 5 7 10 11 13 15 15 13 8 5 6
2 2 2 6 10 3 2 2 1 2 3 3 2 5 1 1 2 2 2 1 2 3 3 4 3 4 9 9 3 5 5 5 6 8 10 13 13 14 14 12 7 2 4 6
4 9 8 4 1 2 2 3 3 3 3 4 3 2 1 2 2 2 3 2 3 6 3 2 4 3 2 1 1 2 5 9 11 12 13 18 19 19 12 12 5 4 7 10
5 4 2 2 2 4 4 6 3 4 2 1 1 2 2 2 3 1 2 4 5 3 3 3 3 3 6 1 4 7 12 9 10 16 22 23 22 21 15 12 10 9 9 7
1 2 3 4 4 4 2 2 2 2 2 3 3 2 1 1 1 2 3 4 3 4 5 5 1 5 4 5 5 7 10 5 7 12 18 19 17 18 17 13 14 10 7 6
2 1 3 5 1 5 3 2 3 2 1 1 2 2 2 1 2 3 3 4 6 6 4 2 6 4 5 6 8 10 2 5 7 17 15 15 18 11 13 14 10 9 8 8
1 2 2 2 1 2 1 1 1 2 3 1 1 1 2 4 4 6 8 5 7 4 3 6 7 7 5 6 9 5 8 9 13 19 18 17 17 12 12 11 12 10 12 11
2 3 1 1 2 2 2 2 4 6 3 2 2 3 8 3 5 7 5 6 7 6 6 7 9 11 10 10 10 11 14 16 18 19 18 17 17 17 14 8 10 13 13 11
Wind_Direction
345 355 3 4 3 11 344 292 112 343 353 212 321 71 43 301 82 85 57 29 33 9 0 341 1 350 41 2 336 337 64 287 289 289 277 331 280 279 291 261 284 290 297 281
340 354 3 4 6 10 335 322 71 31 282 102 99 135 91 29 133 35 43 77 26 12 5 349 25 1 93 346 337 27 358 312 309 337 125 175 324 315 307 301 256 251 260 270
328 350 360 1 2 2 351 304 28 19 351 295 141 145 152 111 26 64 46 64 277 341 340 81 316 317 78 220 276 131 51 268 280 279 292 303 310 313 309 302 292 293 270 289
318 343 354 357 357 356 349 9 47 4 105 51 66 37 336 145 155 68 313 149 348 5 35 341 303 322 332 321 137 187 226 260 274 283 294 308 302 291 285 282 288 288 295 292
306 337 350 352 356 349 313 345 345 95 31 342 194 65 34 282 114 325 105 318 346 319 298 287 316 334 330 308 296 259 178 246 280 273 290 294 305 302 287 288 288 281 288 290
288 327 349 353 358 4 346 52 132 353 345 44 35 219 280 318 41 99 338 343 332 345 332 339 334 310 292 281 282 277 275 206 170 281 299 330 290 259 269 272 299 289 301 310
266 307 334 354 10 21 346 33 329 81 239 236 233 246 270 259 241 281 335 327 306 313 320 313 320 305 287 283 277 271 261 130 141 286 332 241 254 317 308 298 303 303 306 298
260 282 310 333 352 14 13 359 292 117 199 245 278 265 285 288 264 262 269 279 54 3 325 19 340 299 347 280 239 247 249 137 189 257 261 282 288 275 327 313 299 300 337 349
250 263 277 297 311 303 281 275 278 120 121 243 250 273 270 248 257 284 279 275 354 330 83 97 220 277 294 298 331 64 50 69 290 279 287 295 324 312 295 306 279 19 347 312
240 253 261 269 281 282 261 303 234 266 156 269 257 247 262 263 271 285 320 214 274 282 92 148 236 240 256 264 207 280 50 321 249 259 268 271 280 290 3 290 332 306 330 332
233 241 253 258 264 272 259 276 242 248 225 274 263 256 262 270 253 255 240 354 225 68 167 194 228 229 246 272 270 282 297 298 258 238 244 280 268 337 331 310 311 333 326 310
233 237 241 248 250 251 251 269 266 252 238 291 325 281 267 273 275 300 277 221 268 176 181 201 230 252 219 265 275 266 256 218 265 259 271 289 303 302 323 319 323 323 305 315
232 236 238 241 242 243 238 240 259 245 29 277 264 248 265 267 264 263 265 261 232 236 231 279 201 230 210 231 239 242 253 259 261 289 277 284 301 301 301 299 317 312 309 344
231 232 235 236 237 240 238 229 240 215 120 195 255 270 258 260 254 243 241 256 267 263 272 233 196 188 194 217 249 257 246 297 271 275 275 290 284 291 301 298 307 330 323 303
235 232 232 233 235 236 239 244 245 236 202 232 246 263 250 249 242 241 244 238 237 243 223 223 236 207 201 241 263 242 231 256 257 271 289 285 284 293 290 326 329 329 314 330
236 232 231 233 230 227 222 267 244 233 219 265 311 300 249 248 244 240 246 235 235 233 227 210 235 193 168 243 268 268 266 272 270 287 291 285 286 327 344 346 325 326 336 345
230 231 229 228 225 214 195 189 170 197 198 111 289 269 344 294 271 259 261 249 239 226 227 212 182 212 192 230 267 280 284 275 278 273 291 341 316 320 309 310 350 337 354 13
218 217 218 218 209 177 134 104 156 163 142 116 212 265 323 216 214 248 340 334 7 293 238 31 185 291 177 247 256 275 280 279 287 347 327 316 354 344 343 349 338 338 4 360
128 137 135 121 97 116 133 130 113 94 125 171 189 208 189 199 126 101 358 36 327 302 245 202 164 212 228 248 270 273 292 310 343 325 346 353 353 337 338 335 335 340 357 351
110 81 72 66 93 129 113 39 31 16 5 72 218 248 211 213 134 83 321 53 242 249 243 229 213 250 262 272 273 284 17 12 4 14 0 357 339 333 333 329 330 350 0 328
78 80 77 105 147 125 78 124 231 153 236 192 227 216 188 151 132 176 214 252 223 256 252 233 241 243 244 264 322 35 34 21 6 9 350 330 331 324 324 323 323 4 313 302
93 107 109 119 123 69 217 186 177 223 248 164 174 190 206 55 304 182 176 248 220 252 350 275 252 259 229 45 299 330 3 351 347 347 329 320 312 313 317 314 285 262 264 280
95 62 108 175 124 190 220 190 199 192 80 73 27 68 57 77 40 240 256 240 237 340 235 244 247 224 227 351 13 3 351 33 2 328 311 304 301 300 304 297 282 282 271 259
58 149 175 213 169 246 204 273 71 79 102 92 114 104 99 130 210 226 256 246 266 255 239 242 279 45 55 11 6 319 322 7 308 298 296 291 282 276 287 275 273 260 254 255
126 184 223 210 234 68 51 19 112 114 137 109 116 95 352 136 277 236 276 252 239 227 244 317 21 43 25 359 330 318 278 270 303 311 303 296 292 272 276 272 250 247 255 257
124 227 248 95 46 123 92 42 47 206 99 80 0 131 218 224 226 210 217 240 238 269 6 351 339 331 337 341 317 278 290 288 298 305 299 298 297 268 271 271 242 227 243 245
192 214 325 0 64 38 103 153 214 128 143 198 185 225 226 233 224 222 225 252 284 321 339 326 317 313 308 317 307 304 307 299 301 296 298 300 301 299 275 242 221 232 237 234